Wind_Speed
93 94 96 97 99 100 100 100 100 100 99 97 95 91 87 82 77 73 69 64 59 54 49 46 45 46 47 48 47 45 43 43 44 45 46 47 48 48 50 52 54 56 59 61 64 67 69 72 75 78 81 84 88 91 95 100 104 108 112 117 122 127 132 136 139 142 145 148 150 152 153 154 156 159 161 164 167 170 171 172 172 172 173 174 174 174
94 95 96 97 99 100 100 100 100 100 99 97 94 90 85 81 77 73 69 64 59 54 49 45 44 44 45 46 45 43 42 41 42 43 45 46 47 48 49 51 53 56 58 61 64 66 69 72 74 77 80 84 87 91 95 99 103 108 112 117 121 126 131 135 139 142 145 148 150 152 153 155 157 159 162 165 168 170 172 172 172 172 173 174 175 175
94 95 96 97 98 100 101 101 100 100 98 96 92 88 84 80 76 73 69 65 59 54 49 45 43 43 43 43 43 42 41 40 40 42 43 44 45 47 48 50 53 55 58 61 63 66 69 71 74 77 80 83 87 91 95 99 103 107 112 116 121 126 130 134 138 141 144 147 150 151 153 155 157 160 162 165 168 171 172 173 173 173 173 174 175 175
94 96 97 98 99 100 101 101 101 99 97 94 90 86 82 79 75 72 69 65 60 55 49 45 43 42 42 42 41 41 39 39 39 40 42 43 45 46 47 49 52 55 57 60 63 66 68 71 74 77 80 83 86 90 94 98 103 107 111 115 120 125 129 133 137 140 143 147 149 151 153 155 157 159 162 166 169 171 172 173 173 173 173 174 175 175
95 96 98 98 99 100 101 101 100 99 95 92 88 85 81 78 75 72 69 65 61 56 50 46 43 41 41 41 40 39 38 38 38 39 40 42 44 45 47 49 51 54 57 60 63 66 68 71 73 76 79 83 86 90 94 98 102 106 111 115 119 124 128 132 136 140 143 146 149 151 153 154 156 159 162 165 168 170 172 172 173 173 173 174 175 175
95 97 98 99 100 101 101 101 100 97 94 90 86 83 80 77 74 71 69 66 62 57 52 47 44 41 40 40 39 38 37 37 37 38 39 41 43 44 46 48 51 54 57 60 63 65 68 71 73 76 79 82 86 90 93 98 102 106 110 114 118 123 127 131 135 139 143 146 149 152 153 155 157 160 163 166 168 170 171 172 172 173 173 174 174 175
96 97 98 99 100 101 101 100 99 96 93 89 85 81 78 75 73 71 68 66 62 58 53 48 44 41 40 39 38 38 37 36 36 36 38 40 42 44 46 48 50 53 56 59 62 65 68 70 73 76 79 82 86 89 93 97 101 105 109 113 117 121 126 130 135 139 143 147 150 152 154 156 158 160 163 166 168 169 171 172 172 172 172 173 173 174
97 98 99 100 101 101 101 100 98 94 91 87 83 80 77 74 71 69 68 66 63 59 55 50 46 42 40 38 37 37 36 35 35 35 37 39 41 43 45 47 50 53 56 59 62 65 67 70 72 75 78 82 85 89 93 97 101 104 108 112 116 120 125 129 134 138 143 147 150 152 154 156 157 160 163 165 167 169 171 171 172 172 172 172 172 172
97 98 99 100 101 102 102 100 96 93 89 85 81 78 76 73 70 68 67 65 63 60 57 53 48 44 40 38 37 36 35 34 34 34 36 38 40 42 44 47 49 52 56 58 61 64 67 69 72 75 78 81 85 89 92 96 100 104 108 111 115 119 124 128 134 138 143 147 150 153 154 156 157 160 162 165 167 169 171 172 172 171 171 171 171 171
96 98 99 100 101 101 101 99 95 91 87 83 79 76 73 71 69 67 65 63 62 60 57 54 50 46 42 39 37 35 34 33 33 33 35 37 39 42 44 46 49 52 55 58 61 64 66 69 72 74 77 81 85 88 92 96 100 103 107 110 114 118 123 128 133 138 143 148 151 153 155 156 158 161 163 166 168 169 171 171 171 171 170 170 170 170
96 97 99 100 100 100 98 96 92 88 83 79 76 72 69 67 66 64 62 61 59 58 56 53 50 46 42 39 36 34 33 32 32 33 34 36 39 41 43 46 48 51 54 57 60 63 66 68 71 74 77 80 84 88 92 95 99 103 106 110 113 117 122 128 133 139 143 148 151 153 155 157 159 161 164 166 168 169 170 170 170 169 169 168 169 169
95 97 98 99 99 98 96 92 88 84 80 76 73 70 66 64 62 60 58 57 56 55 53 51 48 45 42 39 36 34 32 31 31 32 33 36 38 40 43 45 48 50 54 57 59 62 65 68 70 73 76 80 84 87 91 95 99 102 106 109 113 117 122 128 133 138 143 147 150 153 155 157 159 161 163 165 167 168 169 169 169 168 168 167 168 168
95 96 97 98 98 96 94 90 85 81 77 73 71 68 65 62 60 57 56 54 53 52 50 48 46 43 40 38 35 33 32 31 31 31 33 35 37 40 42 44 47 50 53 56 59 61 64 67 69 72 75 79 83 87 90 94 98 102 105 108 112 117 122 128 133 137 141 145 148 151 154 156 158 160 162 164 166 167 168 168 168 167 167 167 168 168
95 96 97 97 96 94 91 87 83 79 75 72 69 66 64 61 58 56 53 51 50 49 48 46 44 41 39 36 34 32 31 30 30 31 32 35 37 39 42 44 46 49 52 55 58 60 63 66 68 71 75 78 82 86 90 94 98 101 105 108 112 117 122 127 132 136 140 143 147 150 153 156 158 160 162 164 166 167 168 167 167 167 167 167 168 168
95 96 97 96 95 93 90 86 82 78 74 71 68 65 62 59 56 54 51 49 47 46 45 43 41 39 37 35 33 31 30 29 29 30 32 34 36 39 41 43 46 48 51 54 57 59 62 65 68 71 74 78 81 85 89 93 97 101 104 108 112 117 122 126 131 135 138 142 146 150 153 156 158 160 162 165 166 167 167 167 166 166 167 168 168 169
95 96 96 96 94 92 89 85 81 77 73 70 67 64 61 57 54 51 49 47 46 44 43 41 39 37 35 34 32 31 29 29 29 30 31 34 36 38 40 43 45 47 50 53 56 58 61 64 67 70 73 77 81 85 88 92 96 100 104 107 111 116 121 125 129 133 137 141 145 150 153 155 158 160 162 165 166 167 166 166 166 167 167 168 169 169
95 96 96 95 93 91 88 84 80 76 72 68 65 62 59 56 53 50 47 45 44 43 42 40 38 36 34 32 31 30 29 28 29 29 31 33 35 38 40 42 44 47 49 52 54 57 60 63 66 69 73 76 80 84 88 92 96 100 103 106 110 115 120 124 127 131 136 141 145 149 153 155 156 158 161 163 165 166 166 166 167 167 168 169 169 170
95 96 96 95 93 90 86 82 78 74 70 67 64 61 57 54 51 49 46 44 42 41 40 38 37 34 32 31 29 29 28 28 28 29 31 32 35 37 39 41 43 46 48 51 53 56 59 62 65 68 72 76 79 83 87 91 95 99 102 105 109 113 118 122 126 131 136 141 145 149 152 154 156 157 159 161 163 164 165 166 167 168 169 169 170 170
95 96 96 94 92 89 85 81 76 72 69 66 63 60 57 54 50 48 45 43 41 39 38 37 35 33 31 29 28 28 27 27 28 29 30 32 34 36 38 40 42 45 47 50 52 55 58 61 64 68 71 75 79 83 87 91 94 98 101 104 107 112 116 121 125 130 135 140 145 148 151 153 154 156 158 159 161 163 165 167 168 169 170 170 170 171
96 96 95 94 91 87 83 79 75 71 68 65 62 59 56 53 49 47 44 41 39 37 36 35 33 32 30 28 27 27 27 27 27 28 30 31 34 36 38 40 42 44 46 49 51 54 57 60 64 67 71 74 78 82 86 90 93 97 99 102 106 110 114 119 124 129 135 140 144 147 149 151 153 155 156 158 159 162 164 166 168 169 170 171 171 171
96 96 95 92 90 86 82 77 73 70 67 64 61 58 54 51 48 45 42 40 37 35 34 33 32 30 29 27 26 26 26 26 27 28 29 31 33 35 37 39 41 43 45 48 50 53 56 59 63 66 70 74 78 81 85 89 92 95 98 101 104 108 113 118 123 128 134 139 143 146 148 150 152 153 154 156 158 160 163 165 167 169 170 171 171 171
96 95 94 91 88 84 80 76 72 68 65 63 60 57 53 50 47 43 41 38 36 34 32 31 30 29 27 26 25 25 25 25 26 27 29 30 33 35 36 38 40 42 44 47 50 53 56 59 62 66 69 73 77 81 84 88 91 94 96 99 103 107 112 116 121 127 132 137 141 144 147 149 150 152 153 155 157 159 161 164 166 168 169 170 171 171
95 94 92 89 86 82 78 74 70 66 64 61 59 56 53 49 46 43 40 38 36 33 31 30 28 27 26 25 25 24 24 25 26 27 28 30 32 34 36 37 39 41 44 46 49 52 55 58 62 65 69 73 76 80 84 87 90 93 95 98 102 106 110 115 120 125 131 136 140 143 146 148 150 151 153 154 156 158 161 163 165 167 168 170 171 171
93 92 90 87 84 80 76 72 68 65 62 60 57 54 51 49 46 43 40 38 36 33 31 29 27 26 25 24 24 23 23 24 25 26 28 29 31 33 35 37 39 41 43 46 49 51 55 58 61 65 68 72 75 79 83 86 89 92 94 97 101 105 110 114 119 124 130 134 138 142 145 147 149 151 153 155 157 159 161 163 164 166 168 169 170 170
92 90 88 85 82 78 74 70 66 63 61 58 56 53 51 48 45 43 40 38 36 33 31 29 27 25 24 23 23 23 23 23 24 25 27 29 30 32 34 36 38 40 43 45 48 51 54 57 61 64 68 71 75 78 82 85 88 91 94 97 100 104 109 114 118 123 128 133 137 141 144 147 149 151 153 156 158 160 161 163 164 166 167 168 169 170
91 89 87 84 81 77 73 69 66 63 60 58 56 53 51 48 46 43 41 38 36 33 31 28 26 24 23 22 22 22 22 23 23 25 26 28 30 31 33 35 37 40 42 45 48 50 54 57 60 64 67 71 74 77 81 84 87 90 93 96 100 104 108 113 118 122 127 132 136 140 143 146 149 151 153 155 157 159 161 163 164 166 167 168 169 169
91 89 87 84 80 76 72 69 65 62 60 58 56 53 51 49 46 43 40 38 35 33 30 28 25 24 22 21 21 21 21 22 23 24 25 27 29 31 33 35 37 39 42 44 47 50 53 56 60 63 66 70 73 77 80 83 86 89 92 96 99 103 108 112 117 121 126 131 136 139 143 146 149 151 153 155 157 159 161 163 165 166 167 168 168 169
90 89 86 83 80 76 72 68 65 62 60 58 55 53 51 48 45 43 40 37 34 32 29 27 25 23 21 20 20 20 20 21 22 23 25 26 28 30 32 34 36 38 41 44 46 49 52 56 59 62 66 69 73 76 79 82 85 88 92 95 99 103 107 111 116 120 125 130 135 139 143 146 149 151 154 156 158 160 162 164 165 167 168 169 169 169
89 87 85 81 78 74 71 68 65 62 60 57 55 52 49 47 44 42 39 36 33 31 29 26 24 22 21 19 19 19 19 20 21 22 24 26 27 29 31 33 36 38 40 43 46 49 52 55 59 62 66 69 72 75 79 82 85 88 91 95 98 102 106 110 115 119 124 129 134 138 143 146 149 152 155 157 160 162 164 165 167 168 168 169 169 169
87 85 83 80 76 73 70 67 64 61 59 56 53 51 48 45 43 40 38 35 32 30 28 25 23 21 20 19 18 18 18 19 20 22 23 25 27 29 31 33 35 37 40 42 45 48 52 55 58 62 65 68 72 75 78 81 84 87 91 94 98 102 105 110 114 118 123 128 133 138 142 146 149 153 156 159 161 163 165 167 168 169 169 170 170 169
86 84 81 78 75 72 69 66 63 60 58 55 52 49 47 44 42 39 36 34 31 29 27 24 22 20 19 18 17 17 18 18 20 21 23 24 26 28 30 33 35 37 39 42 45 48 51 55 58 62 65 68 71 74 77 81 84 87 90 94 98 101 105 109 113 118 122 127 132 137 142 146 150 153 156 159 162 165 167 168 169 170 170 170 170 170
85 82 80 77 74 71 67 64 62 59 56 54 51 49 46 43 41 38 36 33 31 28 26 23 21 19 18 17 17 17 17 18 19 21 22 24 26 28 30 32 34 37 39 42 45 48 51 55 58 61 65 68 71 74 77 80 83 86 90 93 97 101 105 109 113 117 122 126 132 137 142 146 150 153 157 160 162 165 167 169 170 170 171 171 171 170
83 81 78 76 73 70 66 63 60 57 55 52 50 48 45 42 40 37 35 32 30 27 25 23 21 19 17 16 16 16 17 17 19 20 22 24 26 28 30 32 34 36 39 42 44 48 51 55 58 61 64 67 70 73 76 80 83 86 89 93 97 101 104 108 113 117 122 126 131 136 142 146 150 154 157 160 163 165 167 169 170 171 171 171 171 171
82 80 77 74 72 68 65 62 59 56 54 51 49 47 44 42 39 37 34 31 29 27 24 22 20 18 17 16 15 15 16 17 18 20 22 24 26 28 30 32 34 36 39 42 44 48 51 55 58 61 64 67 70 73 76 79 82 86 89 93 96 100 104 108 112 117 121 126 131 136 141 146 150 154 157 160 163 165 167 169 170 170 171 171 171 171
81 79 76 73 71 68 64 61 58 56 53 50 48 46 43 41 38 36 33 30 28 26 24 21 19 18 16 15 15 15 15 17 18 20 22 24 26 28 30 32 34 36 39 42 45 48 51 55 58 61 64 67 70 73 76 79 82 85 89 92 96 100 104 108 112 117 121 126 131 136 141 146 150 154 157 160 163 165 167 169 170 170 171 171 171 171
80 78 75 72 69 67 64 61 58 55 52 50 47 45 42 40 37 35 32 30 27 25 23 21 19 17 16 15 14 14 15 16 18 20 22 24 26 28 30 32 34 37 39 42 45 48 51 55 58 61 64 66 69 72 75 78 82 85 88 92 95 99 103 107 112 116 121 126 131 136 141 145 150 154 157 160 163 165 167 168 169 170 170 170 171 170
79 76 73 71 68 65 63 60 57 54 51 49 46 44 41 39 36 34 31 29 26 24 22 20 18 16 15 14 14 14 15 16 17 19 21 23 25 27 29 32 34 37 39 42 45 48 51 55 57 61 63 66 69 72 75 78 81 85 88 92 95 99 103 107 112 116 121 126 131 136 140 145 149 153 156 159 162 165 166 168 168 169 170 170 170 170
78 75 72 69 66 64 61 59 56 53 50 48 45 43 40 38 35 33 30 28 25 23 21 19 17 15 14 14 13 14 14 15 17 19 21 23 25 27 29 31 34 37 39 42 45 48 51 54 57 61 63 66 69 72 74 78 81 84 88 91 95 99 103 107 111 116 121 126 131 135 140 144 148 152 156 159 162 164 166 167 168 168 169 170 170 170
77 74 71 68 65 63 60 58 55 52 49 47 44 42 40 37 35 32 29 27 24 22 20 18 16 15 14 13 13 13 14 15 17 18 21 23 25 27 29 31 34 36 39 42 45 48 51 54 57 60 63 66 69 71 74 77 81 84 87 91 94 98 102 106 111 115 120 125 130 135 140 144 148 152 156 159 161 163 165 166 167 168 169 169 170 170
77 73 70 67 64 61 59 56 54 51 48 45 43 41 38 36 34 31 28 26 24 22 20 18 16 14 13 12 12 13 14 15 16 18 20 23 25 27 29 31 34 36 39 42 45 48 51 54 57 60 63 66 68 71 74 77 80 83 87 91 94 98 102 106 110 114 119 124 129 135 139 144 148 152 156 159 161 163 165 166 167 168 169 169 170 170
76 73 69 66 62 60 57 55 52 49 47 44 42 40 38 35 33 30 27 25 23 21 19 17 15 14 12 12 12 12 13 15 16 18 20 23 25 27 29 31 34 36 39 42 45 48 51 54 57 60 63 66 68 71 74 77 80 83 87 90 94 97 101 105 109 114 118 124 129 134 139 144 148 152 156 159 162 164 165 166 167 168 168 169 170 170
75 72 68 65 61 59 56 54 51 48 45 43 41 39 37 34 32 30 27 24 22 20 18 16 14 13 12 11 11 12 13 14 16 18 21 23 25 27 29 31 34 36 39 42 45 48 51 54 57 60 63 65 68 71 74 77 80 83 86 90 93 97 100 104 109 113 118 123 128 134 139 144 149 152 156 159 162 164 165 166 166 167 168 169 170 170
75 71 67 63 60 58 55 53 50 47 44 42 40 38 36 34 31 29 26 24 21 19 17 15 14 12 11 11 11 11 12 14 16 18 20 23 25 27 30 32 34 36 39 42 44 48 51 54 57 60 62 65 68 71 73 76 79 83 86 89 93 96 100 104 108 113 117 123 128 134 139 144 149 153 156 159 162 164 165 166 166 167 168 168 169 170
74 70 66 62 59 56 54 51 49 46 44 41 39 37 35 33 31 28 26 23 21 18 17 15 13 12 11 10 10 11 12 13 15 17 20 23 25 28 30 32 34 37 39 42 45 47 50 54 56 59 62 65 67 70 73 76 79 82 86 89 92 96 100 103 108 112 117 122 127 133 138 143 148 152 156 159 162 164 165 166 167 167 168 168 169 170
73 69 65 61 58 55 53 51 48 46 43 40 38 36 34 32 30 27 25 22 20 18 16 14 13 11 10 10 10 11 11 13 15 17 19 22 25 28 30 33 35 37 40 42 45 48 51 54 56 59 62 65 67 70 73 76 79 82 85 89 92 96 99 103 107 112 116 122 127 132 137 142 147 152 156 159 162 164 166 167 167 167 168 168 169 169
72 68 64 61 58 55 52 50 47 45 42 39 37 35 33 31 29 27 24 22 19 17 15 14 12 11 10 10 10 11 12 13 14 17 19 22 25 27 30 33 35 38 40 43 45 48 51 53 56 59 62 64 67 70 73 75 78 82 85 88 92 95 98 102 106 111 116 121 126 132 137 142 146 151 155 159 162 164 165 166 167 167 167 168 168 169
72 68 64 60 57 54 51 49 47 44 41 39 36 34 32 30 28 26 24 21 19 17 15 13 11 10 9 9 10 11 12 13 15 17 19 22 24 27 30 33 35 38 41 43 46 48 51 53 56 59 61 64 67 69 72 75 78 81 85 88 91 94 98 102 106 111 115 121 126 131 136 141 146 151 155 158 161 163 164 165 166 166 167 167 168 168
71 68 64 60 56 54 51 48 46 43 41 38 36 34 32 30 28 25 23 21 18 16 14 12 11 10 9 9 9 11 12 13 15 17 19 22 24 27 30 32 35 38 41 44 46 49 51 54 56 59 61 64 66 69 72 75 78 81 84 88 91 94 98 102 106 110 115 120 125 131 136 142 147 151 155 157 160 161 163 164 164 165 165 166 167 168
71 67 63 60 56 53 51 48 46 43 40 38 35 33 31 29 27 25 23 20 18 16 14 12 10 10 9 9 9 10 12 13 15 17 19 22 24 27 30 32 35 38 41 44 46 49 51 54 56 59 61 63 66 69 72 75 78 81 84 87 91 94 98 101 105 110 115 120 125 130 136 141 146 151 154 157 159 161 162 162 163 163 164 165 166 167
70 66 63 59 56 53 50 48 45 43 40 37 35 33 30 28 26 24 22 20 17 15 13 12 10 9 9 9 9 10 12 13 15 17 19 22 24 27 30 32 35 38 41 43 46 49 51 54 56 58 61 63 66 69 71 74 77 81 84 87 90 94 97 101 105 110 114 119 125 130 135 141 146 150 154 157 159 160 161 161 162 162 163 164 164 165
69 66 62 59 55 53 50 48 45 42 40 37 34 32 30 28 26 24 21 19 17 15 13 11 10 9 8 9 9 10 12 13 15 17 19 22 24 27 30 32 35 38 41 44 46 49 51 53 56 58 61 63 66 68 71 74 77 80 84 87 90 94 97 101 105 110 114 119 124 130 135 140 145 150 154 157 159 160 160 161 161 161 162 163 164 164
Wind_Direction
318 318 318 319 319 320 320 321 321 321 321 321 320 318 316 315 313 311 310 308 306 304 301 297 292 288 284 281 277 273 269 265 262 258 255 251 247 243 240 236 234 231 228 226 223 221 219 217 215 214 212 211 210 209 208 207 206 205 204 203 203 203 203 203 203 203 203 203 203 203 202 201 201 201 201 201 202 203 203 204 204 204 204 204 205 205
318 319 319 319 320 320 321 322 322 322 322 321 320 318 317 315 313 312 310 309 307 305 302 298 294 289 285 282 278 274 269 265 261 257 254 250 246 242 239 235 232 230 227 225 222 220 218 216 215 213 212 210 209 208 207 207 206 205 204 203 203 202 203 203 203 202 202 202 202 202 201 201 200 200 200 201 201 202 203 203 203 203 203 203 204 204
319 319 319 320 321 321 322 322 322 322 322 321 320 318 317 315 313 312 311 309 308 306 304 300 296 291 287 283 279 274 269 264 260 256 253 249 245 241 238 234 231 229 226 224 222 220 218 216 214 213 211 210 209 208 207 206 206 205 204 203 203 202 202 202 202 202 201 202 202 202 201 200 200 199 199 200 201 201 202 202 202 202 202 203 203 204
319 320 320 321 322 322 322 323 323 322 322 321 320 318 317 315 314 313 311 310 309 307 305 302 298 294 289 284 280 275 269 264 260 256 252 248 244 240 237 233 230 228 226 223 221 219 217 215 214 212 211 209 208 207 207 206 206 205 204 203 202 202 202 202 201 201 201 201 201 201 201 200 199 199 199 199 200 201 201 202 202 202 202 202 203 203
320 321 321 322 322 323 323 323 323 322 322 321 320 319 317 316 314 313 312 310 309 307 306 303 300 296 291 286 281 276 270 264 259 255 251 247 244 240 236 232 230 227 225 223 220 218 216 215 213 211 210 209 208 207 206 206 205 205 204 203 203 202 201 201 201 200 200 200 201 201 200 200 199 198 198 199 200 200 201 201 201 201 201 202 202 202
321 321 322 322 323 323 323 323 323 323 322 321 320 319 317 316 314 313 312 310 309 308 306 304 301 297 293 287 282 276 271 264 259 254 250 247 243 239 235 232 229 226 224 222 220 218 216 214 212 211 210 208 207 206 206 205 205 205 204 204 203 202 201 200 200 200 199 200 200 200 200 199 199 198 198 198 199 200 200 201 201 201 201 201 202 202
322 322 322 323 323 323 323 323 323 323 322 321 320 319 317 316 314 313 312 311 309 308 307 305 302 299 294 288 282 277 271 265 259 254 250 246 242 238 234 231 228 226 223 221 219 217 215 214 212 210 209 208 207 206 205 205 205 204 204 204 203 202 201 200 199 199 199 199 199 200 199 199 198 198 198 198 198 199 200 200 200 200 200 201 201 201
322 322 323 323 323 323 324 323 323 323 322 321 320 319 317 316 314 313 312 311 309 308 307 306 303 300 295 289 283 277 271 265 259 253 249 245 242 238 234 231 228 225 223 221 219 217 215 213 211 210 209 207 206 205 205 204 204 204 204 203 203 202 201 200 199 199 198 198 199 199 199 199 198 198 197 198 198 198 199 200 200 200 200 200 200 201
322 323 323 323 323 323 323 323 323 323 322 321 320 319 317 316 314 313 312 310 309 308 306 305 303 300 296 290 283 277 271 265 259 253 248 245 241 237 234 230 227 225 222 220 218 216 214 213 211 210 208 207 206 205 204 204 204 204 204 203 203 202 201 200 199 198 198 198 198 199 199 198 198 197 197 197 197 198 199 199 199 199 199 200 200 200
323 323 323 323 323 323 323 323 323 323 322 321 320 318 317 315 314 312 310 309 307 306 305 304 302 300 296 291 284 278 271 264 258 253 248 244 240 237 233 230 227 224 222 220 218 216 214 212 211 209 208 207 206 205 204 204 203 203 203 203 202 201 200 199 199 198 198 197 198 198 198 198 197 197 197 197 197 198 198 199 199 199 199 199 199 200
323 323 323 323 323 323 323 323 323 322 322 320 319 317 315 314 312 310 308 306 305 303 302 301 300 298 295 290 285 278 271 264 258 252 247 243 240 236 233 229 226 224 222 220 218 216 214 212 210 209 208 206 206 205 204 203 203 203 203 203 202 201 200 199 199 198 197 197 198 198 198 198 197 197 197 196 197 197 198 198 198 198 198 198 199 199
323 323 323 323 323 323 323 323 323 322 321 320 318 316 314 312 311 309 307 305 303 301 300 299 298 296 293 289 284 278 271 264 258 252 247 243 239 236 232 229 226 224 221 219 217 216 214 212 210 208 207 206 205 204 204 203 203 203 203 202 201 201 200 199 199 198 198 197 197 197 197 197 197 197 196 196 196 197 197 197 197 197 197 198 198 199
323 323 323 323 323 323 323 323 323 322 321 320 318 317 315 313 311 309 306 304 302 301 299 298 297 294 292 288 283 277 271 264 257 251 246 242 239 235 232 229 226 223 221 219 217 215 213 211 209 208 207 206 205 204 203 203 202 202 202 202 201 200 200 199 199 198 198 197 197 197 197 197 197 196 196 196 196 196 197 197 197 197 197 197 197 198
323 323 323 323 323 324 324 324 324 323 322 321 319 317 315 313 311 309 307 305 302 301 299 297 296 294 291 287 282 277 270 264 257 251 246 241 238 235 231 228 225 223 221 219 217 215 213 211 209 207 206 206 205 204 203 203 202 202 202 201 201 200 200 199 199 198 198 197 197 197 197 197 196 196 196 195 196 196 196 196 196 196 196 196 197 198
323 323 324 324 324 325 325 325 325 324 323 321 319 317 315 313 311 309 307 305 303 301 299 298 296 293 290 286 281 276 270 263 256 250 245 241 237 234 231 228 225 222 220 218 216 214 213 211 209 207 206 205 205 204 203 202 202 202 201 201 200 200 200 199 199 198 198 197 197 197 197 197 196 196 195 195 195 195 195 195 195 195 195 196 196 197
324 324 324 325 326 326 326 326 325 324 323 321 319 318 316 314 312 310 308 306 304 302 300 298 295 293 289 285 280 275 269 262 256 250 244 240 237 234 230 227 224 222 219 218 216 214 212 210 208 207 206 205 204 204 203 202 202 202 201 201 200 200 200 199 199 198 197 197 196 196 197 197 197 196 195 195 195 195 194 194 194 195 195 195 196 197
324 325 326 326 327 327 327 326 325 324 323 321 320 318 317 315 313 312 310 308 306 303 301 299 296 293 289 284 279 274 268 262 255 249 243 240 236 233 230 227 224 221 219 217 215 213 212 210 208 206 205 204 204 204 203 202 202 202 201 201 200 200 199 199 199 198 197 196 196 196 196 197 197 196 196 195 195 194 194 193 194 194 194 195 196 196
326 326 327 327 328 328 327 326 325 324 323 321 320 319 317 316 314 313 311 309 306 304 301 298 296 292 288 284 279 273 267 261 254 248 243 239 235 232 229 226 223 221 218 216 214 213 211 209 208 206 205 204 203 203 203 202 202 202 201 201 200 199 199 199 198 197 197 196 196 196 196 196 196 196 196 195 194 194 193 193 193 193 194 195 195 196
327 327 328 328 328 328 327 326 326 324 323 322 321 320 319 317 316 314 312 309 306 304 301 298 295 292 288 283 278 272 266 260 254 247 242 238 234 232 229 226 223 220 217 215 214 212 210 209 207 206 205 204 203 203 203 203 202 202 201 201 200 199 199 199 198 197 196 196 196 196 196 196 196 196 196 195 194 194 193 193 193 193 194 194 195 195
328 328 329 329 328 328 327 327 326 325 324 323 322 321 319 318 316 315 312 310 307 304 301 298 295 291 287 282 277 271 265 259 253 247 241 237 234 231 228 225 222 219 217 215 213 211 210 208 207 206 204 203 203 202 202 202 202 202 201 200 200 199 199 199 198 197 196 196 196 196 196 196 195 195 195 195 194 194 193 193 193 193 193 194 194 195
329 329 329 329 328 328 327 327 326 325 324 323 322 321 320 318 317 315 313 311 308 305 302 298 295 291 287 282 276 271 264 258 252 246 241 236 233 230 227 224 221 218 216 214 212 210 209 208 206 205 204 203 203 202 202 202 202 202 201 200 200 199 199 198 198 197 196 196 196 196 196 195 195 195 195 194 194 194 193 193 193 193 193 194 194 195
329 329 329 329 328 328 327 327 327 326 325 324 323 322 320 319 318 317 315 313 310 306 303 299 295 291 287 282 276 270 263 257 251 245 240 236 232 229 226 223 220 217 215 213 211 209 208 207 206 205 204 203 202 202 202 202 202 202 201 200 199 199 199 198 198 197 196 196 196 195 195 195 194 194 194 194 194 193 193 193 193 193 193 193 194 194
329 329 329 329 329 328 328 327 327 326 325 324 323 322 321 321 320 319 317 315 313 309 305 301 296 291 286 281 275 269 263 257 250 245 239 235 231 228 225 222 219 217 214 212 210 208 207 206 205 204 204 203 202 202 201 201 201 201 201 200 199 198 198 198 197 197 196 196 195 195 195 194 194 193 193 193 193 193 193 193 193 193 193 194 194 194
329 329 329 329 329 328 328 328 327 327 326 325 324 323 323 322 321 321 319 317 315 311 307 302 297 292 287 281 275 269 262 256 250 244 239 234 230 227 224 221 218 215 213 211 209 208 206 205 205 204 203 202 202 201 201 201 201 201 200 199 199 198 198 198 197 197 196 196 195 195 194 194 193 192 192 192 192 192 193 193 193 193 193 194 194 194
329 330 330 330 329 329 328 328 328 327 327 326 325 325 324 324 323 322 321 318 316 312 308 303 298 293 287 281 275 269 262 255 249 243 238 234 230 227 223 220 217 215 212 210 208 207 206 205 204 203 203 202 202 201 201 200 200 200 199 199 198 198 197 197 197 196 196 195 195 194 194 193 193 192 192 192 192 192 192 193 193 193 194 194 194 194
330 330 331 331 330 330 329 329 329 328 328 328 327 326 326 325 324 323 321 319 316 313 309 304 299 294 287 281 275 269 262 255 249 243 238 233 229 226 222 219 216 214 211 209 207 206 205 204 203 203 202 202 201 201 200 200 200 199 199 198 198 197 197 197 197 196 196 195 194 194 193 193 192 192 191 191 191 191 192 192 193 193 194 194 194 194
331 332 332 331 331 330 330 330 330 330 329 329 328 327 326 325 323 322 321 319 316 313 309 304 299 294 288 282 276 269 262 255 249 242 237 232 229 225 222 218 216 213 211 208 206 205 204 203 203 202 202 201 201 200 200 199 199 199 198 198 197 197 197 196 196 196 195 195 194 194 193 192 192 191 191 191 191 191 191 192 192 193 193 194 194 194
332 332 332 332 331 330 330 330 331 331 330 329 328 327 325 324 323 322 320 318 315 312 308 304 299 294 288 283 276 269 262 255 248 242 236 231 227 224 221 218 215 212 210 207 206 204 203 202 202 202 201 201 200 200 199 199 198 198 197 197 197 196 196 196 196 196 195 194 194 193 192 192 191 191 190 190 190 190 191 191 192 193 193 194 194 194
333 333 332 332 331 331 331 331 331 331 330 329 328 326 325 324 323 322 320 318 315 312 308 304 300 295 289 283 276 269 262 254 247 241 235 230 226 223 220 217 214 211 209 207 205 203 202 202 201 201 201 200 200 199 199 198 198 197 197 196 196 196 196 196 196 195 195 194 193 193 192 191 191 190 190 189 189 190 190 191 192 192 193 194 194 194
333 333 333 332 332 331 331 331 331 331 330 329 327 326 325 324 323 322 320 318 315 312 308 304 300 295 289 283 276 269 261 253 245 239 233 229 225 221 218 216 213 210 208 206 204 203 202 201 201 200 200 200 199 199 198 198 197 197 196 196 196 195 195 195 195 195 195 194 193 192 192 191 191 190 190 189 189 190 190 191 191 192 193 193 193 194
334 334 333 333 332 332 332 332 331 331 330 328 327 326 325 324 323 322 321 318 316 312 309 305 300 296 290 283 275 267 259 251 244 237 231 227 223 220 217 214 211 209 206 204 203 202 201 201 200 200 200 199 199 198 198 197 197 196 196 195 195 195 195 195 195 195 194 194 193 192 191 191 190 190 190 189 189 189 190 190 191 192 192 193 193 193
334 334 334 334 333 332 332 331 331 331 330 328 327 326 325 325 324 323 321 319 316 313 309 305 300 296 290 282 274 266 257 249 242 235 229 225 221 218 215 213 210 208 205 203 202 201 200 200 200 199 199 199 198 198 197 197 196 196 195 195 195 195 194 194 194 194 194 193 193 192 191 191 190 190 190 189 189 190 190 190 191 191 192 192 193 193
335 335 335 334 333 332 332 332 331 331 330 329 328 327 326 325 324 323 322 319 316 313 309 305 301 296 290 282 273 265 256 247 240 233 227 223 219 216 214 211 209 206 204 202 201 200 200 200 199 199 199 198 198 197 197 196 196 195 195 195 194 194 194 194 193 193 193 193 193 192 191 191 190 190 190 189 189 190 190 190 191 191 192 192 192 193
336 336 335 335 334 333 332 332 332 331 331 330 328 327 327 326 325 324 322 319 317 313 310 305 301 295 289 282 273 264 255 246 238 231 225 221 218 215 212 210 207 205 203 201 200 199 199 199 199 199 198 198 197 197 196 196 195 195 194 194 194 194 193 193 193 193 193 193 192 192 191 191 190 190 190 190 189 190 190 190 191 191 192 192 192 192
336 336 336 335 334 333 332 332 332 332 331 330 329 328 327 326 325 324 322 320 317 314 310 305 301 295 288 281 272 263 254 244 236 230 224 220 216 213 211 209 206 204 201 200 199 198 198 198 198 198 198 197 197 196 196 195 195 194 194 194 194 193 193 193 193 192 192 192 192 192 191 191 190 190 190 190 190 190 190 191 191 191 191 192 192 192
337 337 337 336 334 333 333 333 333 332 332 331 329 328 327 326 325 324 322 320 317 313 309 305 300 295 288 280 271 262 252 243 235 228 223 218 215 212 210 207 205 203 201 199 198 198 198 198 198 197 197 197 197 196 195 195 194 194 193 193 193 193 193 193 192 192 192 192 192 192 191 191 190 190 190 190 190 190 190 191 191 191 191 191 192 192
337 337 337 336 335 334 333 333 333 333 332 331 330 329 328 327 326 324 322 320 317 314 310 306 300 295 288 279 270 260 251 241 233 227 222 218 214 211 209 206 204 202 200 199 197 197 197 197 197 197 197 196 196 196 195 194 194 193 193 193 193 193 193 192 192 192 191 191 191 191 191 191 190 190 190 190 190 190 191 191 191 191 191 191 191 192
338 338 337 337 335 334 334 334 333 333 332 331 330 329 328 327 326 325 323 320 317 314 310 305 300 294 288 279 269 259 249 240 232 226 221 217 213 210 208 206 204 201 200 198 197 196 196 196 196 196 196 196 196 195 195 194 193 193 193 192 192 193 193 192 192 191 191 191 191 191 191 191 190 190 190 190 190 190 191 191 191 191 191 191 191 191
338 338 338 337 336 335 334 334 334 333 332 331 330 329 328 328 326 325 323 321 318 314 310 306 300 294 287 278 268 258 248 239 231 225 219 215 212 209 207 205 203 201 199 198 197 196 196 196 196 196 196 195 195 195 194 194 193 193 192 192 192 192 192 192 192 191 191 191 190 190 190 190 190 190 190 190 190 190 191 191 191 191 191 191 191 191
339 339 338 337 336 335 335 334 334 333 333 332 331 330 329 328 327 325 323 321 318 315 310 306 300 294 286 277 267 256 246 237 229 223 218 214 210 208 205 204 202 201 199 198 196 196 195 195 196 195 195 195 195 194 194 193 193 192 192 192 192 192 192 192 192 191 191 190 190 190 190 190 190 190 190 190 190 191 191 191 191 191 191 191 191 191
339 339 338 338 337 336 335 335 334 334 333 332 331 330 329 328 327 326 324 321 318 315 310 306 300 293 285 276 265 255 245 236 229 222 217 213 209 206 204 203 201 200 199 197 196 196 195 195 195 195 195 195 194 194 193 193 192 192 192 192 192 192 192 192 192 191 191 190 190 190 190 190 190 190 190 190 190 191 191 191 191 191 191 191 191 191
339 339 339 338 337 336 336 335 335 334 334 333 332 331 330 329 328 326 324 321 318 315 310 305 300 292 284 274 262 252 244 235 228 221 216 211 208 205 203 201 200 199 198 197 196 195 195 195 195 195 195 194 194 193 193 192 192 192 191 191 191 191 191 191 191 191 191 190 190 190 190 190 190 190 190 190 190 191 191 191 192 192 191 191 191 191
339 339 339 338 338 337 336 336 335 335 334 334 333 332 331 330 328 326 324 322 319 315 310 305 299 291 282 272 260 249 241 235 228 222 216 211 207 204 202 200 199 198 197 196 196 195 195 195 195 195 194 194 194 193 193 192 192 191 191 191 191 191 191 191 191 191 190 190 190 190 190 190 190 190 190 190 190 190 191 191 192 192 191 191 191 191
339 339 339 338 338 338 337 337 336 336 335 335 334 333 331 330 328 327 324 322 319 315 310 305 298 290 281 270 257 245 237 232 227 222 217 212 207 204 201 199 197 196 196 196 195 195 195 195 195 194 194 194 193 193 192 192 191 191 191 191 191 191 191 191 191 191 190 190 190 190 190 190 190 190 190 190 190 190 191 191 192 192 192 191 191 191
339 339 339 339 339 338 338 337 337 336 336 335 334 333 332 330 329 327 325 322 319 315 310 304 297 289 279 268 255 243 232 227 224 221 218 213 209 204 201 198 196 195 195 194 194 194 194 194 194 194 194 193 193 192 192 191 191 191 191 190 190 190 190 190 190 190 190 190 190 190 190 190 190 190 190 190 190 191 191 191 192 192 191 191 191 191
340 340 339 339 339 339 339 338 337 337 336 336 335 334 332 331 329 327 325 323 319 315 310 304 296 287 277 266 254 242 231 223 219 217 216 213 210 206 202 199 196 195 194 194 194 194 194 194 194 194 194 193 193 192 192 191 191 191 190 190 190 190 190 190 190 190 190 190 190 189 189 189 190 190 190 190 191 191 191 191 191 192 191 191 191 191
340 340 340 340 340 339 339 339 338 337 337 336 335 334 333 331 329 328 325 323 319 315 309 303 295 286 275 262 252 242 231 222 216 213 213 211 209 207 203 200 197 195 193 193 193 193 193 194 194 194 193 193 193 192 191 191 191 190 190 190 190 190 190 190 190 190 190 190 189 189 189 189 190 190 190 191 191 191 191 192 192 191 191 191 191 191
340 340 340 340 340 340 340 339 339 338 337 336 336 335 333 332 330 328 325 323 319 315 309 302 294 284 273 261 249 239 230 222 215 212 210 209 208 206 203 201 198 196 194 193 192 192 193 193 193 193 193 193 192 192 191 191 190 190 190 190 190 190 190 190 190 190 190 189 189 189 189 189 189 190 190 191 191 192 192 192 192 192 191 191 191 191
340 340 340 340 340 340 340 340 339 338 337 337 336 335 334 332 330 328 326 323 319 315 309 302 293 283 272 258 247 238 230 222 215 211 209 208 207 205 203 201 199 197 195 193 192 192 192 192 193 193 193 193 192 192 191 191 190 190 190 190 190 189 189 189 189 189 189 189 189 189 189 189 189 190 190 191 191 192 192 192 192 192 191 191 191 191
340 340 340 340 340 341 340 340 339 339 338 337 336 335 334 332 330 328 326 323 319 314 309 301 292 282 270 258 246 236 229 222 216 211 208 207 205 204 203 201 199 197 195 194 193 192 192 192 192 192 192 192 192 192 191 191 190 190 190 190 189 189 189 189 189 189 189 189 189 189 189 189 189 190 190 191 191 192 192 192 192 192 191 191 191 191
340 340 340 340 341 341 341 340 340 339 338 337 336 335 334 333 331 328 326 323 319 314 308 301 291 281 270 257 246 236 228 222 217 212 208 206 205 203 202 201 199 197 195 194 193 192 192 192 192 192 192 192 192 192 191 191 190 190 190 189 189 189 189 189 189 189 189 189 189 189 189 189 189 190 190 191 191 192 192 192 192 192 191 191 191 191
Height
10145 10139 10134 10127 10119 10112 10104 10096 10090 10083 10076 10070 10063 10056 10049 10044 10040 10036 10032 10029 10027 10025 10024 10022 10020 10017 10014 10012 10011 10011 10011 10011 10010 10009 10009 10009 10010 10012 10013 10015 10016 10018 10020 10023 10026 10030 10034 10038 10042 10047 10053 10059 10064 10070 10077 10083 10089 10095 10102 10109 10118 10127 10137 10149 10162 10177 10191 10203 10214 10227 10242 10257 10272 10287 10301 10315 10329 10340 10352 10368 10385 10402 10415 10427 10439 10453
10137 10132 10126 10120 10113 10105 10097 10090 10083 10076 10070 10064 10057 10050 10044 10039 10034 10030 10026 10023 10020 10019 10017 10015 10014 10011 10009 10007 10005 10005 10005 10005 10005 10004 10004 10004 10005 10006 10008 10009 10011 10013 10015 10018 10021 10024 10028 10032 10037 10042 10047 10053 10059 10065 10071 10078 10084 10090 10097 10104 10112 10120 10130 10141 10155 10170 10183 10195 10207 10220 10234 10247 10260 10275 10289 10304 10319 10332 10344 10357 10374 10391 10406 10418 10430 10444
10132 10125 10119 10113 10106 10099 10091 10084 10077 10070 10064 10057 10051 10044 10038 10032 10028 10024 10020 10017 10014 10012 10011 10009 10007 10005 10004 10002 10000 10000 10000 10000 10000 9999 9999 9999 10000 10001 10003 10004 10006 10008 10010 10013 10015 10019 10023 10027 10032 10037 10042 10048 10054 10060 10066 10072 10079 10085 10091 10098 10106 10114 10124 10135 10149 10163 10177 10189 10201 10214 10227 10239 10252 10267 10282 10297 10310 10322 10332 10345 10361 10379 10395 10408 10420 10434
10125 10119 10112 10105 10099 10092 10085 10077 10070 10064 10059 10052 10045 10039 10032 10027 10022 10018 10014 10010 10008 10006 10005 10004 10002 10000 9999 9997 9995 9995 9995 9995 9995 9995 9994 9994 9995 9997 9998 9999 10001 10003 10005 10007 10010 10014 10017 10022 10027 10032 10037 10043 10049 10055 10061 10067 10074 10080 10086 10093 10100 10109 10118 10130 10143 10158 10172 10185 10196 10207 10220 10234 10248 10262 10277 10290 10302 10313 10324 10337 10350 10366 10383 10399 10413 10427
10119 10112 10105 10098 10092 10085 10078 10071 10064 10058 10052 10047 10040 10034 10027 10022 10017 10013 10009 10005 10002 10000 9999 9998 9997 9995 9994 9992 9990 9990 9990 9990 9990 9990 9990 9990 9990 9992 9993 9995 9996 9998 10000 10003 10005 10009 10013 10017 10022 10027 10032 10038 10044 10050 10056 10062 10069 10075 10082 10089 10095 10104 10113 10124 10138 10152 10168 10180 10190 10201 10214 10229 10242 10255 10269 10282 10293 10305 10318 10332 10345 10359 10373 10390 10407 10422
10112 10105 10099 10092 10085 10079 10073 10066 10059 10052 10046 10040 10035 10029 10022 10017 10012 10008 10004 10000 9997 9995 9994 9992 9991 9990 9989 9987 9986 9985 9985 9985 9985 9985 9985 9985 9986 9987 9989 9990 9992 9994 9995 9998 10001 10004 10008 10012 10017 10022 10028 10034 10039 10045 10051 10058 10064 10070 10077 10084 10091 10100 10109 10119 10132 10145 10159 10172 10184 10195 10207 10221 10234 10246 10259 10272 10284 10297 10312 10325 10338 10351 10365 10382 10400 10417
10104 10098 10092 10085 10079 10073 10067 10060 10054 10048 10042 10035 10029 10024 10019 10013 10008 10004 9999 9995 9992 9990 9988 9987 9986 9985 9984 9983 9982 9981 9980 9981 9981 9982 9982 9982 9982 9983 9984 9985 9987 9989 9991 9994 9996 10000 10004 10008 10013 10018 10024 10029 10034 10040 10047 10053 10059 10066 10073 10080 10088 10096 10105 10115 10126 10138 10152 10165 10177 10188 10199 10212 10225 10237 10250 10263 10276 10290 10303 10316 10330 10344 10359 10376 10394 10411
10099 10092 10085 10079 10073 10066 10060 10054 10048 10042 10036 10030 10024 10019 10013 10009 10004 10000 9995 9990 9987 9985 9983 9982 9981 9980 9979 9978 9977 9977 9976 9976 9977 9977 9977 9977 9978 9979 9980 9981 9983 9985 9987 9989 9992 9995 9999 10004 10009 10014 10019 10024 10030 10036 10042 10049 10055 10062 10069 10077 10085 10093 10101 10110 10121 10132 10145 10158 10169 10181 10193 10205 10218 10230 10243 10256 10270 10284 10297 10310 10324 10339 10355 10371 10389 10405
10095 10088 10081 10074 10068 10062 10055 10049 10043 10037 10031 10025 10020 10014 10008 10003 9999 9995 9992 9987 9983 9980 9979 9977 9976 9975 9975 9974 9973 9972 9972 9972 9972 9973 9973 9973 9974 9974 9975 9977 9979 9980 9982 9985 9987 9991 9995 9999 10004 10010 10015 10020 10026 10032 10038 10044 10051 10057 10065 10072 10081 10089 10098 10107 10117 10127 10139 10150 10162 10174 10187 10199 10212 10224 10237 10249 10263 10277 10290 10305 10319 10335 10351 10368 10385 10402
10090 10084 10077 10070 10064 10059 10052 10046 10040 10034 10027 10021 10015 10010 10005 10000 9995 9992 9989 9985 9980 9977 9975 9973 9972 9971 9970 9969 9969 9968 9968 9968 9969 9969 9969 9969 9969 9970 9971 9973 9974 9976 9979 9981 9984 9987 9991 9995 10000 10005 10011 10017 10022 10027 10034 10040 10047 10054 10060 10069 10077 10085 10094 10104 10112 10122 10132 10144 10155 10167 10180 10193 10205 10218 10229 10242 10255 10269 10284 10299 10314 10330 10348 10366 10383 10398
10086 10080 10074 10067 10060 10054 10049 10043 10037 10030 10024 10018 10012 10008 10004 9999 9994 9990 9985 9982 9978 9975 9972 9970 9968 9967 9966 9965 9964 9964 9964 9964 9965 9965 9965 9965 9965 9966 9967 9969 9970 9972 9974 9977 9980 9984 9987 9992 9997 10002 10008 10013 10019 10024 10030 10036 10043 10049 10056 10064 10072 10081 10090 10099 10107 10116 10126 10137 10148 10160 10174 10187 10199 10210 10222 10235 10248 10262 10277 10294 10310 10327 10346 10364 10380 10394
10083 10077 10070 10064 10057 10051 10045 10039 10032 10027 10020 10015 10009 10004 9999 9995 9991 9987 9983 9979 9975 9972 9969 9967 9965 9963 9962 9961 9960 9960 9960 9960 9960 9961 9961 9961 9962 9962 9963 9965 9967 9969 9970 9973 9976 9980 9984 9988 9993 9999 10004 10010 10015 10020 10026 10032 10039 10045 10052 10060 10069 10077 10085 10094 10102 10110 10120 10131 10142 10155 10167 10180 10192 10204 10216 10230 10244 10257 10272 10289 10307 10325 10344 10360 10375 10389
10079 10073 10067 10060 10054 10047 10040 10033 10027 10021 10015 10009 10004 9998 9993 9989 9985 9982 9979 9975 9972 9968 9965 9963 9961 9959 9958 9957 9956 9956 9956 9956 9957 9957 9957 9957 9958 9959 9959 9961 9963 9965 9967 9970 9973 9976 9980 9985 9990 9995 10001 10007 10012 10017 10022 10029 10035 10041 10049 10057 10065 10074 10081 10089 10097 10105 10115 10127 10138 10150 10162 10174 10187 10199 10213 10226 10240 10254 10270 10286 10305 10323 10340 10356 10370 10384
10073 10067 10061 10054 10047 10040 10034 10027 10020 10014 10009 10003 9997 9992 9988 9984 9980 9977 9974 9970 9967 9964 9961 9959 9957 9955 9954 9953 9952 9952 9952 9952 9953 9954 9954 9954 9954 9955 9955 9957 9959 9961 9964 9966 9969 9973 9977 9982 9987 9992 9998 10003 10009 10014 10019 10025 10031 10037 10044 10052 10060 10069 10076 10084 10092 10101 10112 10124 10135 10147 10158 10170 10182 10195 10209 10222 10235 10250 10266 10284 10303 10320 10336 10350 10363 10376
10067 10061 10055 10049 10041 10034 10026 10019 10013 10007 10002 9997 9992 9987 9984 9979 9976 9972 9969 9966 9963 9960 9957 9955 9954 9952 9950 9949 9949 9949 9949 9949 9949 9949 9950 9950 9950 9951 9952 9954 9955 9958 9960 9963 9966 9970 9974 9979 9984 9989 9994 10000 10005 10011 10016 10022 10027 10034 10040 10048 10056 10064 10072 10079 10087 10098 10109 10120 10132 10143 10154 10165 10177 10189 10202 10216 10230 10245 10262 10280 10299 10316 10330 10343 10355 10368
10062 10055 10049 10042 10034 10027 10019 10012 10007 10002 9997 9992 9987 9983 9979 9974 9971 9968 9965 9962 9959 9956 9954 9951 9950 9948 9947 9946 9945 9945 9945 9945 9945 9946 9947 9947 9947 9948 9949 9950 9952 9955 9957 9960 9963 9967 9971 9975 9980 9986 9991 9997 10002 10008 10014 10019 10024 10030 10036 10044 10052 10060 10067 10075 10084 10095 10106 10117 10129 10139 10150 10161 10172 10184 10197 10210 10225 10240 10258 10277 10294 10310 10323 10335 10348 10360
10057 10050 10042 10035 10028 10020 10014 10007 10002 9997 9992 9988 9983 9978 9974 9970 9966 9963 9960 9957 9955 9952 9950 9948 9946 9944 9944 9942 9942 9941 9941 9942 9942 9942 9943 9944 9944 9945 9946 9947 9949 9952 9954 9957 9960 9964 9968 9973 9977 9983 9988 9994 9999 10005 10010 10015 10021 10026 10033 10040 10048 10056 10064 10072 10081 10092 10103 10114 10124 10135 10145 10157 10170 10182 10194 10206 10220 10237 10254 10272 10288 10302 10315 10329 10341 10354
10051 10043 10035 10029 10022 10015 10009 10003 9998 9993 9988 9984 9979 9974 9970 9965 9962 9959 9956 9954 9951 9949 9947 9945 9943 9941 9940 9939 9939 9938 9938 9938 9939 9939 9940 9940 9941 9942 9943 9945 9947 9949 9951 9954 9957 9961 9965 9970 9975 9980 9985 9990 9996 10002 10007 10013 10018 10023 10030 10037 10045 10054 10061 10069 10079 10089 10100 10110 10120 10130 10141 10154 10167 10180 10193 10205 10219 10234 10251 10266 10280 10294 10308 10321 10334 10347
10044 10037 10029 10023 10016 10010 10005 9999 9994 9988 9983 9979 9974 9969 9965 9962 9958 9955 9952 9950 9947 9945 9943 9941 9939 9938 9937 9935 9935 9935 9935 9935 9935 9936 9937 9937 9938 9939 9940 9942 9944 9946 9949 9952 9955 9959 9963 9967 9972 9977 9982 9987 9993 9999 10004 10010 10015 10020 10027 10035 10043 10051 10059 10067 10076 10086 10096 10105 10115 10126 10137 10150 10164 10178 10192 10205 10219 10233 10247 10260 10274 10287 10300 10314 10327 10340
10037 10030 10024 10017 10012 10005 10000 9995 9989 9984 9979 9974 9970 9966 9962 9958 9954 9952 9949 9946 9944 9942 9940 9938 9936 9935 9934 9933 9932 9932 9932 9932 9932 9933 9934 9934 9935 9936 9937 9939 9941 9944 9946 9949 9952 9956 9960 9965 9969 9974 9979 9984 9990 9995 10001 10007 10012 10019 10025 10033 10041 10049 10057 10065 10074 10083 10092 10102 10112 10123 10135 10147 10161 10175 10190 10205 10220 10233 10245 10257 10269 10281 10295 10308 10321 10334
10032 10025 10019 10013 10007 10002 9996 9990 9985 9980 9975 9970 9966 9962 9959 9955 9952 9949 9945 9943 9940 9939 9937 9935 9934 9932 9931 9930 9929 9929 9929 9929 9929 9930 9930 9932 9932 9934 9935 9937 9939 9941 9944 9947 9950 9954 9958 9962 9967 9971 9976 9982 9987 9992 9998 10004 10010 10016 10024 10031 10039 10047 10055 10063 10071 10080 10089 10099 10109 10120 10132 10145 10159 10174 10189 10204 10219 10233 10245 10256 10267 10279 10290 10303 10315 10329
10029 10022 10015 10010 10004 9999 9993 9987 9982 9977 9972 9967 9963 9959 9955 9951 9948 9945 9942 9940 9938 9935 9934 9932 9930 9929 9928 9927 9927 9926 9926 9927 9927 9927 9928 9929 9930 9931 9932 9935 9937 9939 9942 9944 9947 9951 9955 9959 9964 9969 9974 9979 9984 9990 9995 10001 10007 10014 10022 10029 10037 10045 10053 10060 10069 10077 10086 10095 10105 10117 10129 10142 10157 10172 10187 10203 10217 10232 10244 10255 10267 10277 10289 10300 10312 10324
10025 10020 10014 10007 10001 9995 9990 9984 9979 9974 9969 9964 9960 9955 9951 9948 9945 9942 9939 9937 9935 9932 9931 9929 9928 9927 9925 9924 9924 9924 9924 9924 9924 9925 9925 9927 9927 9929 9930 9932 9935 9937 9940 9942 9945 9949 9952 9957 9961 9965 9970 9976 9982 9987 9993 9999 10005 10012 10020 10027 10035 10043 10050 10058 10067 10075 10084 10093 10103 10114 10127 10140 10154 10169 10185 10200 10214 10228 10242 10254 10265 10276 10287 10297 10308 10320
10024 10017 10011 10004 9998 9992 9986 9981 9976 9971 9966 9962 9957 9952 9948 9945 9942 9939 9936 9934 9932 9930 9928 9927 9925 9924 9923 9922 9922 9921 9921 9922 9922 9923 9924 9924 9925 9927 9929 9930 9932 9935 9937 9940 9943 9946 9950 9954 9959 9963 9969 9974 9979 9985 9990 9996 10002 10010 10017 10025 10033 10040 10047 10055 10064 10072 10082 10090 10101 10112 10124 10137 10152 10166 10181 10196 10210 10224 10237 10250 10262 10274 10285 10295 10305 10317
10020 10014 10007 10000 9994 9987 9982 9977 9972 9967 9963 9958 9954 9949 9945 9942 9939 9936 9934 9932 9929 9927 9925 9924 9923 9922 9920 9920 9919 9919 9919 9919 9920 9920 9921 9922 9924 9925 9927 9929 9930 9933 9935 9938 9941 9944 9948 9952 9956 9961 9966 9971 9977 9982 9988 9994 10000 10007 10015 10022 10030 10038 10045 10053 10061 10070 10079 10089 10099 10110 10122 10135 10149 10163 10177 10192 10205 10219 10232 10245 10259 10270 10281 10291 10302 10315
10015 10008 10001 9995 9989 9983 9977 9972 9968 9964 9959 9954 9950 9945 9942 9939 9936 9934 9931 9929 9927 9925 9924 9922 9920 9919 9919 9918 9917 9917 9917 9917 9918 9919 9919 9920 9922 9923 9925 9927 9929 9931 9934 9936 9939 9942 9946 9950 9954 9959 9964 9969 9974 9980 9986 9992 9998 10005 10012 10020 10028 10035 10043 10050 10059 10067 10077 10086 10097 10108 10120 10133 10146 10160 10174 10188 10202 10215 10228 10241 10254 10266 10277 10288 10300 10312
10009 10002 9995 9990 9984 9979 9974 9969 9964 9959 9955 9950 9947 9943 9940 9937 9934 9932 9929 9927 9925 9924 9922 9920 9919 9917 9916 9915 9915 9915 9915 9915 9916 9917 9917 9919 9920 9922 9923 9925 9927 9929 9932 9935 9937 9941 9944 9948 9952 9957 9962 9967 9972 9978 9984 9990 9996 10002 10010 10018 10025 10033 10040 10049 10057 10065 10074 10084 10094 10105 10117 10130 10143 10157 10170 10184 10197 10211 10224 10237 10249 10261 10272 10284 10296 10309
10006 9999 9992 9987 9981 9975 9970 9965 9960 9956 9952 9948 9945 9941 9938 9935 9932 9930 9927 9925 9924 9922 9920 9918 9917 9915 9914 9914 9914 9914 9914 9914 9914 9915 9916 9917 9919 9920 9922 9924 9925 9928 9930 9934 9936 9940 9943 9947 9951 9955 9960 9965 9970 9976 9982 9988 9994 10000 10008 10015 10023 10031 10039 10047 10054 10063 10072 10081 10092 10103 10115 10127 10140 10153 10166 10179 10193 10206 10219 10231 10243 10255 10267 10279 10292 10305
10004 9997 9991 9985 9979 9973 9968 9963 9958 9954 9950 9946 9943 9939 9936 9933 9930 9927 9925 9924 9922 9920 9918 9916 9915 9914 9913 9912 9912 9912 9912 9912 9912 9913 9914 9915 9917 9919 9920 9922 9924 9927 9929 9932 9935 9939 9942 9945 9949 9954 9958 9963 9969 9974 9980 9986 9992 9999 10005 10013 10021 10029 10037 10044 10052 10061 10070 10079 10090 10100 10112 10124 10137 10149 10162 10175 10187 10200 10212 10224 10237 10249 10260 10273 10287 10300
10002 9995 9989 9983 9977 9970 9965 9960 9956 9952 9949 9944 9941 9937 9934 9931 9929 9925 9923 9921 9919 9917 9916 9914 9913 9912 9911 9910 9910 9910 9910 9910 9910 9912 9912 9914 9915 9917 9919 9920 9923 9925 9928 9931 9934 9937 9940 9944 9947 9952 9956 9961 9966 9972 9978 9984 9990 9997 10004 10011 10019 10027 10034 10042 10051 10060 10069 10078 10088 10099 10110 10122 10134 10145 10157 10169 10182 10194 10205 10217 10229 10242 10254 10267 10281 10295
10000 9993 9987 9980 9974 9969 9964 9959 9955 9950 9947 9942 9939 9935 9932 9929 9926 9924 9921 9919 9917 9915 9914 9912 9911 9910 9909 9909 9909 9909 9908 9909 9909 9910 9911 9912 9914 9915 9917 9919 9921 9924 9927 9930 9933 9936 9939 9942 9946 9950 9954 9959 9964 9970 9976 9982 9989 9995 10002 10009 10017 10024 10032 10040 10049 10058 10067 10077 10086 10097 10107 10119 10130 10142 10153 10165 10176 10187 10199 10210 10222 10235 10248 10262 10275 10290
9997 9990 9984 9977 9972 9966 9961 9957 9953 9949 9944 9940 9937 9933 9930 9927 9924 9922 9919 9917 9915 9914 9912 9911 9910 9909 9908 9907 9907 9907 9907 9907 9907 9908 9909 9910 9912 9914 9915 9917 9920 9922 9925 9928 9932 9935 9938 9941 9944 9948 9952 9957 9962 9968 9974 9980 9987 9993 10000 10007 10014 10022 10030 10038 10047 10055 10065 10075 10084 10094 10105 10115 10127 10138 10149 10160 10171 10182 10194 10205 10217 10230 10243 10257 10270 10285
9994 9987 9981 9975 9969 9964 9959 9955 9950 9947 9942 9939 9934 9931 9927 9925 9922 9920 9917 9915 9914 9912 9911 9909 9908 9907 9906 9906 9905 9905 9905 9905 9906 9907 9908 9909 9910 9912 9914 9915 9918 9921 9924 9927 9930 9933 9936 9939 9943 9947 9951 9955 9961 9967 9972 9979 9985 9991 9998 10005 10012 10019 10027 10035 10044 10053 10062 10072 10082 10092 10102 10113 10124 10135 10145 10156 10167 10178 10189 10200 10213 10226 10239 10252 10265 10280
9991 9985 9979 9972 9967 9962 9957 9952 9949 9944 9940 9937 9933 9929 9926 9923 9920 9918 9916 9914 9912 9910 9909 9908 9907 9906 9905 9904 9904 9904 9904 9904 9905 9905 9906 9907 9909 9910 9912 9914 9917 9919 9922 9925 9928 9932 9935 9938 9942 9945 9950 9954 9959 9965 9970 9977 9983 9989 9996 10003 10010 10017 10025 10033 10041 10050 10059 10069 10080 10090 10099 10110 10120 10131 10142 10153 10164 10174 10185 10197 10209 10222 10235 10247 10261 10275
9988 9982 9976 9970 9965 9959 9955 9950 9946 9942 9939 9935 9931 9927 9924 9922 9919 9917 9914 9912 9910 9909 9908 9907 9905 9905 9904 9904 9903 9903 9903 9903 9904 9904 9905 9906 9908 9909 9911 9913 9915 9918 9920 9924 9927 9930 9933 9937 9940 9944 9948 9953 9958 9964 9969 9975 9981 9988 9994 10001 10008 10015 10023 10030 10039 10047 10056 10067 10077 10087 10097 10107 10117 10129 10139 10150 10160 10171 10182 10194 10205 10218 10230 10244 10257 10270
9986 9980 9974 9969 9963 9957 9952 9948 9944 9940 9937 9933 9929 9926 9923 9920 9918 9915 9913 9911 9909 9908 9907 9905 9904 9904 9903 9902 9902 9902 9902 9902 9903 9904 9904 9905 9907 9909 9910 9912 9914 9917 9919 9922 9925 9929 9932 9935 9939 9943 9947 9952 9957 9962 9968 9974 9980 9986 9992 9999 10007 10014 10021 10029 10036 10045 10054 10064 10074 10084 10094 10105 10115 10126 10137 10148 10159 10169 10180 10191 10203 10215 10227 10240 10254 10267
9984 9978 9972 9967 9962 9956 9951 9947 9942 9939 9935 9932 9928 9925 9922 9919 9917 9914 9912 9910 9908 9907 9905 9904 9904 9902 9902 9902 9901 9901 9901 9901 9902 9903 9904 9905 9906 9908 9910 9912 9914 9916 9919 9921 9924 9927 9930 9934 9938 9942 9946 9950 9955 9960 9966 9972 9979 9985 9991 9997 10005 10012 10019 10027 10034 10042 10051 10060 10071 10082 10092 10103 10114 10124 10135 10146 10157 10167 10178 10190 10202 10213 10225 10238 10251 10264
9981 9975 9970 9965 9960 9955 9950 9945 9941 9937 9934 9930 9927 9924 9920 9917 9915 9913 9910 9909 9907 9905 9904 9903 9902 9902 9901 9900 9900 9900 9900 9900 9901 9902 9903 9904 9905 9907 9909 9911 9913 9915 9917 9920 9923 9926 9930 9933 9937 9940 9944 9949 9954 9959 9965 9970 9977 9983 9989 9996 10003 10010 10017 10025 10032 10040 10049 10058 10068 10079 10090 10101 10112 10123 10134 10145 10156 10166 10177 10188 10200 10211 10223 10235 10249 10261
9979 9974 9969 9964 9959 9954 9949 9944 9940 9936 9932 9929 9925 9922 9919 9916 9914 9912 9909 9907 9906 9904 9903 9902 9901 9900 9900 9900 9900 9900 9900 9900 9900 9901 9902 9904 9905 9907 9909 9910 9912 9915 9917 9920 9922 9925 9929 9932 9935 9939 9944 9948 9953 9958 9964 9969 9975 9982 9988 9994 10001 10008 10015 10023 10030 10039 10047 10056 10066 10077 10089 10100 10110 10122 10133 10144 10155 10165 10175 10186 10197 10209 10220 10233 10245 10258
9977 9972 9967 9962 9957 9952 9947 9943 9939 9935 9932 9928 9924 9921 9918 9915 9913 9910 9909 9907 9905 9904 9902 9901 9900 9900 9899 9899 9899 9899 9899 9899 9900 9900 9902 9903 9904 9906 9908 9910 9912 9914 9917 9919 9922 9925 9928 9931 9935 9939 9943 9947 9952 9957 9962 9968 9974 9980 9987 9993 9999 10006 10014 10022 10029 10037 10045 10055 10065 10075 10086 10097 10108 10119 10130 10141 10152 10163 10173 10184 10194 10205 10217 10229 10242 10255
9974 9970 9965 9960 9955 9951 9947 9942 9938 9934 9930 9927 9923 9920 9917 9914 9912 9910 9907 9905 9904 9902 9901 9900 9900 9899 9899 9899 9898 9899 9899 9899 9899 9900 9901 9902 9904 9905 9907 9909 9912 9914 9917 9919 9922 9925 9927 9931 9934 9938 9942 9946 9950 9955 9961 9966 9972 9979 9985 9990 9997 10004 10012 10020 10028 10036 10044 10053 10062 10072 10083 10094 10105 10116 10127 10137 10147 10158 10169 10179 10190 10201 10213 10225 10238 10250
9972 9968 9963 9959 9954 9949 9945 9940 9937 9933 9929 9925 9922 9919 9915 9913 9910 9909 9907 9905 9903 9902 9900 9900 9899 9899 9898 9898 9897 9898 9898 9899 9899 9900 9900 9902 9903 9905 9907 9909 9911 9914 9916 9919 9922 9924 9927 9930 9934 9937 9941 9945 9950 9955 9960 9965 9971 9977 9983 9989 9996 10003 10010 10019 10026 10035 10043 10051 10060 10069 10079 10090 10101 10112 10122 10132 10142 10152 10163 10174 10185 10197 10209 10221 10233 10245
9970 9966 9962 9957 9952 9948 9944 9939 9935 9932 9928 9924 9921 9918 9915 9912 9910 9907 9905 9904 9902 9901 9900 9899 9899 9898 9897 9897 9897 9897 9897 9898 9899 9900 9900 9901 9902 9904 9905 9908 9910 9912 9915 9918 9920 9924 9927 9930 9933 9936 9940 9944 9949 9954 9959 9964 9970 9976 9982 9988 9995 10002 10009 10017 10024 10033 10041 10049 10058 10067 10077 10087 10097 10107 10118 10129 10139 10149 10160 10172 10183 10194 10205 10217 10229 10241
9969 9964 9960 9955 9951 9947 9942 9938 9934 9930 9927 9923 9920 9917 9914 9911 9909 9907 9905 9903 9902 9900 9899 9899 9898 9897 9897 9897 9896 9896 9897 9897 9899 9899 9900 9901 9902 9904 9905 9907 9909 9912 9914 9917 9920 9923 9926 9929 9932 9935 9939 9944 9949 9953 9959 9964 9969 9975 9980 9987 9994 10000 10007 10014 10022 10031 10039 10048 10057 10066 10075 10085 10094 10104 10115 10125 10135 10146 10157 10169 10180 10191 10203 10215 10227 10239
9967 9962 9958 9954 9949 9945 9940 9937 9933 9929 9925 9922 9919 9916 9913 9910 9908 9906 9904 9902 9901 9900 9899 9898 9897 9897 9896 9896 9896 9895 9896 9897 9897 9899 9900 9902 9902 9904 9905 9906 9908 9910 9913 9916 9919 9922 9925 9929 9932 9935 9939 9943 9947 9952 9957 9962 9968 9974 9980 9985 9992 9998 10005 10012 10021 10029 10038 10046 10055 10064 10074 10084 10094 10103 10113 10122 10132 10142 10153 10164 10175 10187 10199 10211 10224 10237
9965 9960 9956 9952 9947 9944 9939 9935 9932 9928 9924 9921 9918 9915 9912 9910 9907 9905 9904 9902 9900 9899 9898 9897 9897 9896 9896 9895 9895 9895 9895 9895 9897 9898 9900 9901 9902 9904 9905 9906 9908 9910 9912 9915 9918 9921 9924 9927 9931 9935 9939 9943 9947 9952 9957 9962 9967 9973 9979 9985 9991 9997 10005 10012 10020 10028 10035 10044 10053 10062 10072 10082 10094 10104 10112 10120 10129 10138 10147 10157 10169 10181 10194 10207 10220 10233
9963 9959 9954 9950 9946 9942 9938 9934 9930 9927 9924 9920 9917 9914 9912 9909 9907 9905 9903 9901 9900 9899 9897 9897 9896 9895 9895 9895 9895 9895 9895 9895 9896 9897 9899 9900 9902 9904 9905 9907 9908 9909 9911 9914 9917 9920 9923 9927 9930 9934 9938 9942 9946 9951 9956 9961 9966 9972 9977 9984 9990 9997 10004 10012 10019 10026 10034 10042 10051 10060 10070 10081 10092 10102 10111 10119 10127 10135 10145 10154 10165 10178 10191 10204 10218 10230
9962 9957 9952 9949 9944 9940 9937 9933 9929 9925 9922 9919 9916 9914 9911 9909 9906 9904 9902 9900 9899 9898 9897 9896 9895 9895 9895 9895 9895 9895 9895 9895 9895 9897 9898 9899 9901 9903 9905 9907 9908 9910 9911 9913 9915 9919 9922 9925 9930 9934 9937 9942 9945 9950 9955 9960 9965 9970 9976 9982 9989 9995 10002 10009 10017 10024 10033 10041 10049 10058 10068 10079 10089 10099 10108 10117 10126 10135 10145 10155 10166 10177 10190 10203 10216 10229
9960 9955 9951 9947 9943 9939 9935 9932 9928 9925 9921 9919 9915 9913 9910 9908 9905 9904 9902 9900 9899 9897 9897 9895 9895 9895 9895 9894 9894 9894 9895 9895 9895 9896 9897 9899 9900 9902 9904 9906 9908 9910 9912 9914 9915 9918 9921 9925 9929 9932 9937 9941 9945 9950 9954 9959 9964 9970 9975 9981 9987 9994 10000 10008 10015 10023 10031 10040 10048 10057 10066 10075 10084 10094 10104 10115 10125 10136 10147 10157 10169 10180 10191 10203 10215 10227
9958 9954 9950 9945 9942 9938 9934 9930 9927 9924 9920 9917 9915 9912 9909 9907 9905 9903 9901 9900 9898 9897 9896 9895 9895 9894 9894 9894 9894 9894 9894 9895 9895 9896 9897 9898 9900 9902 9904 9905 9907 9909 9911 9914 9915 9918 9920 9924 9928 9932 9936 9940 9945 9949 9954 9959 9964 9969 9975 9980 9986 9993 10000 10007 10014 10022 10030 10038 10047 10055 10064 10072 10081 10091 10102 10113 10124 10135 10146 10157 10169 10180 10192 10204 10215 10227
9956 9952 9948 9944 9940 9937 9933 9929 9926 9923 9920 9917 9914 9911 9909 9907 9904 9902 9901 9899 9898 9897 9895 9895 9894 9894 9894 9894 9894 9894 9894 9895 9895 9895 9897 9898 9899 9901 9903 9905 9907 9909 9911 9913 9915 9919 9921 9924 9927 9931 9935 9940 9944 9949 9954 9958 9963 9969 9974 9979 9985 9992 9999 10005 10013 10020 10028 10036 10044 10053 10062 10070 10080 10090 10100 10110 10121 10132 10144 10155 10167 10179 10191 10203 10215 10227